GFSNE_500_rhum_003.txt.gz
RH
70 75 79 79 63 63 63 64 62 50 40 33 27 20 16 12 10 10 10 10 8 6 5 4 3 3 3 4 4 4 4 4 4 4 3 3 3 3
78 78 60 57 62 67 68 64 56 42 31 25 16 13 12 12 12 11 8 6 4 3 3 3 3 3 4 4 4 4 5 6 6 6 6 6 6 5
53 46 58 66 75 69 63 53 36 30 25 18 12 12 12 11 10 8 5 4 4 4 6 10 22 25 6 3 3 4 4 9 14 13 11 13 12 9
52 65 76 76 69 62 47 34 30 25 18 14 14 12 10 7 5 4 5 6 13 25 45 47 45 36 14 4 1 2 5 9 12 14 15 24 24 21
69 80 72 67 54 39 34 28 24 20 19 15 12 11 5 4 6 6 16 52 57 56 57 53 61 58 60 60 57 53 17 4 8 14 17 20 22 23
78 69 58 44 39 32 26 22 16 14 14 14 10 4 4 6 12 42 51 64 69 63 57 67 71 70 66 64 76 78 78 74 79 79 73 66 67 73
64 50 43 37 30 25 18 14 15 16 14 7 3 6 6 18 56 53 59 71 83 55 60 90 72 76 70 75 76 78 79 91 100 88 75 65 44 43
47 45 35 29 23 18 18 17 15 7 3 4 6 5 13 55 54 57 68 74 89 72 66 100 86 87 78 84 80 70 84 100 100 96 58 23 17 16
44 33 26 21 20 19 14 10 3 4 8 7 5 20 53 52 51 67 77 75 80 79 70 92 84 92 84 84 74 74 60 88 92 57 27 48 68 65
32 25 22 19 16 14 7 2 4 9 8 8 38 64 60 60 62 65 72 77 82 86 64 86 75 88 71 76 59 80 84 78 65 39 51 66 75 87
26 22 18 16 13 4 2 5 9 8 27 60 61 61 64 66 63 68 75 77 80 89 71 75 67 52 31 38 49 62 85 91 75 80 87 86 84 77
21 21 16 11 3 2 7 10 8 43 73 72 74 74 73 73 70 69 68 79 72 92 77 76 34 48 68 59 61 66 70 69 76 82 86 90 93 98
20 15 10 3 4 10 11 12 54 72 78 87 89 86 82 76 67 61 56 67 78 84 72 74 33 44 47 65 70 79 82 89 96 99 100 95 90 97
14 9 3 7 11 12 20 69 76 78 81 86 85 68 50 33 24 20 24 31 69 78 79 78 37 56 58 66 72 88 97 98 100 100 98 66 52 80
6 3 9 12 13 34 76 76 77 67 55 41 34 33 31 30 27 19 21 33 44 74 84 84 41 46 52 58 76 65 82 100 100 100 100 33 91 91
3 10 12 15 42 76 76 51 37 37 40 39 35 30 27 30 30 27 25 37 47 82 83 94 50 59 58 70 67 84 99 93 100 89 100 100 100 100
9 12 18 46 84 70 44 41 46 42 36 35 36 38 38 38 38 28 25 33 37 87 98 96 54 70 79 93 88 83 100 100 100 98 100 90 90 87
13 19 54 80 53 48 53 46 37 38 34 32 32 37 47 50 51 35 26 30 42 68 100 100 71 68 81 77 98 100 100 100 100 100 100 99 97 78
23 70 64 45 52 50 39 38 34 37 36 32 40 52 62 52 39 33 35 43 47 52 97 100 98 62 86 100 95 96 100 100 99 97 100 99 76 51
60 49 50 56 42 37 34 38 58 53 35 39 51 55 56 55 64 67 62 59 51 49 89 100 100 73 72 94 100 100 97 100 99 82 84 99 80 94
43 40 30 25 34 34 37 55 59 63 54 46 48 57 65 67 63 57 56 44 38 39 74 100 100 81 64 87 92 97 100 100 97 98 100 100 86 100
19 19 20 28 33 30 44 48 46 60 66 61 71 78 70 61 58 60 59 54 39 34 54 99 100 69 51 81 90 100 100 99 82 99 94 100 96 100
15 19 22 24 27 31 40 42 49 68 70 73 79 90 88 75 68 58 50 46 45 31 41 98 100 75 46 79 86 100 100 100 83 82 91 100 100 95

GFSNE_500_rhum_006.txt.gz
RH
25 38 54 66 70 61 43 45 45 35 42 47 42 39 36 33 24 12 8 7 7 7 7 6 7 6 4 3 3 3 3 3 3 2 2 2 2 3
56 64 68 65 45 41 44 45 54 48 37 40 39 33 23 15 12 12 10 7 6 5 4 3 3 3 5 18 27 29 30 26 14 7 7 7 5 4
67 67 49 45 47 48 59 53 47 45 42 36 24 19 15 15 15 12 8 4 2 2 4 4 10 29 39 41 34 30 28 27 20 7 3 3 3 3
65 56 52 52 68 59 50 49 47 41 26 19 16 11 10 9 8 5 2 2 5 6 22 44 40 53 45 48 52 52 53 48 39 36 32 7 5 5
54 54 68 67 56 52 50 47 31 24 19 13 10 9 8 6 3 2 5 6 13 49 48 49 59 52 53 57 51 53 58 62 70 73 72 63 47 10
65 71 61 54 53 52 38 28 22 16 14 12 11 8 4 2 4 5 5 54 57 51 60 60 59 57 58 41 49 58 69 75 89 99 100 98 89 75
68 58 55 55 46 31 25 19 16 16 13 10 6 3 4 5 5 30 56 56 74 57 61 72 63 60 55 54 58 67 71 69 72 59 77 96 100 100
58 60 54 38 30 24 19 18 16 12 8 4 3 6 5 10 59 59 57 57 69 73 60 82 60 76 63 67 70 54 53 63 61 58 49 60 89 92
61 47 35 32 24 20 17 13 10 4 3 7 8 7 23 54 56 63 67 63 69 71 67 89 70 76 69 65 37 30 33 37 44 85 84 64 52 31
39 38 32 23 20 16 12 8 3 5 9 9 12 44 56 57 59 66 67 68 77 74 70 80 69 73 58 31 40 42 40 54 58 82 89 88 84 58
37 31 24 20 15 11 6 3 6 10 12 32 63 59 66 63 60 63 64 60 68 70 71 79 68 79 40 47 50 67 74 84 87 92 94 96 97 96
28 25 20 13 10 4 4 7 10 20 62 78 71 69 72 71 66 56 49 34 28 29 56 83 77 76 45 47 69 70 66 67 72 77 89 100 100 100
26 18 13 9 4 5 8 11 34 71 73 66 52 41 37 31 27 25 20 16 16 18 26 76 85 81 42 68 68 62 67 71 84 99 97 100 60 62
17 14 9 3 6 8 14 51 72 57 38 39 41 42 40 35 29 26 26 26 23 16 25 62 87 86 53 56 59 82 92 97 94 99 100 94 92 89
14 7 3 7 11 28 60 60 40 42 44 38 32 30 30 29 29 33 34 29 27 20 20 38 89 95 55 52 72 76 67 100 94 100 100 96 87 81
6 4 7 15 43 53 38 39 44 36 30 31 31 26 24 26 31 36 46 43 32 32 23 26 86 100 71 61 68 85 90 78 87 100 100 100 99 98
4 6 16 48 42 39 46 40 31 31 38 42 30 32 41 47 55 45 45 40 27 28 55 46 75 99 73 73 100 97 88 97 100 99 100 100 97 75
6 17 46 32 32 33 33 33 37 52 52 46 36 42 51 54 58 68 69 55 39 38 53 59 94 98 72 65 56 97 98 99 100 100 100 99 98 96
17 42 20 17 18 26 30 37 49 46 54 59 56 63 76 80 76 66 59 60 55 45 47 58 99 100 87 76 74 80 100 100 100 100 100 92 94 75
33 14 14 16 20 25 30 42 47 50 66 63 65 75 78 73 67 63 63 58 53 46 41 50 100 100 66 76 100 100 100 100 100 100 96 89 84 88
13 18 20 22 25 30 36 40 46 55 65 69 77 83 86 94 92 79 63 42 48 36 36 56 100 81 57 82 100 100 98 94 97 100 91 85 94 100
21 23 27 31 34 39 45 51 56 59 68 88 100 100 100 94 88 82 62 43 45 35 32 93 96 58 58 80 96 100 94 90 100 100 100 86 98 100
27 28 30 33 39 51 64 74 77 75 81 99 100 100 99 100 100 88 64 46 37 30 46 100 95 58 57 79 96 100 97 80 98 100 100 100 92 82

GFSNE_500_rhum_009.txt.gz
RH
27 24 22 37 54 56 56 58 57 47 36 52 53 46 39 38 40 31 18 12 10 8 7 6 5 5 4 3 3 2 2 2 3 3 3 2 2 3
27 41 59 60 62 61 58 43 42 53 50 46 42 43 41 28 18 13 9 7 6 6 6 5 3 2 2 3 4 10 27 32 40 38 30 24 20 17
68 76 69 65 58 40 47 62 58 49 42 44 43 29 20 15 10 8 8 7 5 4 3 3 3 4 4 20 39 51 42 34 42 48 46 41 32 26
81 72 62 42 51 67 62 53 46 47 45 30 21 15 12 12 10 9 6 3 3 4 5 4 5 35 39 50 56 48 38 57 62 65 64 62 58 53
67 50 47 68 66 58 49 48 47 32 24 18 14 12 10 8 6 3 3 4 6 6 13 33 44 50 55 54 50 51 58 63 63 66 64 62 56 52
47 68 73 64 55 52 49 34 25 21 17 13 8 7 6 4 3 4 6 6 23 50 49 44 47 49 61 52 58 60 52 56 56 48 48 60 57 40
78 72 60 53 51 37 27 23 20 17 11 8 8 5 3 3 6 7 9 38 63 55 51 67 51 60 59 60 61 62 63 60 33 16 17 22 28 34
70 58 55 42 30 25 23 20 16 9 10 7 3 3 5 7 8 37 51 51 64 86 50 78 54 70 64 65 71 70 58 27 27 26 21 13 20 76
58 49 35 29 26 23 18 9 10 12 5 3 4 7 10 35 52 54 70 60 70 74 59 74 67 71 73 75 75 62 26 31 31 34 45 48 44 75
44 33 28 27 22 11 8 13 9 4 4 6 12 34 56 54 49 56 64 66 70 63 51 51 50 60 75 76 73 44 35 40 45 68 69 76 78 81
32 29 26 18 10 12 10 6 4 5 16 37 54 53 45 36 27 23 26 26 27 26 24 25 21 28 56 75 74 42 42 54 59 59 60 62 68 94
26 25 15 9 12 9 5 3 6 29 49 54 43 36 34 36 35 33 30 29 27 27 22 19 18 20 58 76 80 46 51 57 58 62 79 87 94 79
22 12 10 11 8 4 4 7 33 45 38 35 39 39 33 28 26 25 24 22 21 20 17 16 22 25 26 98 92 47 44 61 74 85 98 100 96 88
10 10 10 7 4 4 10 40 39 34 40 38 30 30 32 32 27 22 23 22 23 22 21 18 22 24 32 91 99 76 60 76 77 86 100 100 100 100
9 7 5 4 4 15 41 26 26 32 29 30 38 43 38 32 35 38 56 55 50 40 38 30 22 24 40 83 80 66 71 100 100 100 100 100 90 95
7 4 4 5 24 33 15 15 21 26 28 34 38 46 44 43 49 52 54 57 67 63 50 30 21 22 47 88 67 66 78 77 85 88 90 100 100 100
5 4 6 27 19 14 14 17 22 29 35 42 50 54 57 66 80 74 68 69 58 61 72 66 43 36 67 90 71 64 76 94 84 84 87 99 100 99
4 6 25 15 16 17 21 26 32 39 43 49 55 58 66 75 88 96 78 58 55 57 51 49 51 54 91 77 49 68 90 89 90 97 92 91 86 77
6 25 15 19 21 24 29 37 46 51 57 62 67 77 95 100 90 80 83 84 69 52 47 34 41 92 100 89 53 63 90 88 100 100 87 83 63 94
20 16 21 24 26 31 43 54 63 69 70 73 83 92 90 97 100 98 89 68 54 50 49 31 54 100 96 58 78 91 82 100 98 80 96 78 68 89
20 21 25 26 33 47 59 71 81 81 77 79 82 93 100 93 96 96 90 67 43 43 38 33 96 96 51 68 91 100 96 73 90 90 100 100 99 96
18 26 29 36 48 52 62 73 78 84 84 83 88 100 100 80 75 83 67 61 49 40 31 82 100 61 54 77 96 100 97 84 80 92 99 100 91 96
26 30 34 46 49 55 60 64 69 74 74 83 94 100 100 87 64 59 48 42 33 28 96 100 90 56 62 88 100 97 95 72 89 94 100 100 98 98

GFSNE_500_rhum_012.txt.gz
RH
53 49 44 36 32 43 56 58 54 47 37 54 55 49 43 40 37 33 26 19 16 13 10 8 7 6 5 4 4 4 3 3 2 2 2 2 2 2
51 57 41 44 71 70 66 55 41 45 46 48 41 38 35 27 20 16 13 10 8 6 5 5 4 4 3 2 2 3 3 4 4 6 10 13 13 11
63 43 74 82 79 60 44 56 67 55 45 40 33 22 16 13 10 8 7 6 5 5 4 3 2 2 3 4 4 10 33 40 45 53 58 53 44 43
52 85 88 70 51 48 71 62 50 44 33 21 17 12 10 8 7 6 6 5 4 3 3 4 5 6 10 28 36 39 50 62 60 59 52 49 54 53
94 89 63 47 68 72 56 48 38 26 21 15 11 8 7 6 6 5 4 3 3 5 6 7 12 40 40 41 40 46 61 65 62 63 61 57 60 65
85 57 58 80 66 54 46 32 25 20 16 10 8 7 7 5 4 3 4 5 9 18 32 44 44 46 52 49 51 57 65 67 63 57 55 55 46 21
54 76 80 60 53 40 27 23 19 14 9 7 7 7 5 3 4 10 14 26 57 54 42 72 51 57 60 59 56 59 66 65 64 61 44 28 24 23
86 75 62 52 34 28 24 18 12 8 7 8 7 5 3 6 19 28 40 40 42 66 51 75 53 70 61 62 59 61 70 67 64 58 33 24 29 27
68 61 46 33 30 20 10 8 7 6 6 4 4 4 13 38 33 32 32 28 27 26 23 38 52 55 50 46 44 48 64 72 69 47 29 36 40 46
58 40 33 28 15 9 8 5 5 5 4 4 6 24 37 27 22 23 25 26 31 30 27 22 27 25 22 19 21 28 44 72 69 40 32 40 45 55
40 34 30 22 12 9 6 5 5 4 4 17 35 27 22 29 28 25 23 23 24 26 25 19 22 20 20 22 16 16 27 60 71 38 43 45 50 58
36 32 25 16 11 8 5 4 4 7 26 26 20 27 27 25 26 28 28 27 24 23 27 17 19 19 23 26 21 14 25 54 72 42 45 56 64 67
33 26 18 13 10 7 5 4 11 20 12 13 17 20 26 33 34 37 38 37 40 41 42 28 27 22 19 26 35 22 18 47 71 46 49 62 81 81
21 13 11 10 8 5 4 14 15 12 14 18 24 31 39 45 46 48 53 62 68 57 58 52 40 35 32 28 26 46 34 61 68 47 68 84 100 91
13 12 11 10 6 4 15 14 15 16 22 31 40 47 50 50 50 54 63 70 84 71 61 60 49 39 31 22 28 57 80 95 57 62 80 94 96 92
12 14 12 5 4 15 14 16 17 22 34 42 47 50 57 69 75 74 77 72 65 81 96 59 50 40 36 36 42 88 100 89 78 82 95 100 100 94
16 14 6 5 13 15 18 18 22 38 48 47 51 58 69 82 100 97 94 89 79 63 70 61 54 41 41 61 93 98 79 64 64 81 82 84 100 84
16 8 5 11 17 20 21 29 33 45 41 48 59 68 84 97 95 92 86 84 72 65 49 42 46 41 50 84 58 75 64 74 84 74 58 63 75 58
10 5 9 18 20 21 30 35 50 43 43 51 64 80 96 100 91 74 87 88 81 54 39 42 34 50 100 100 48 60 94 93 91 90 80 80 87 63
4 7 20 20 24 31 36 43 46 44 47 50 57 83 97 88 88 60 66 59 58 51 46 36 67 100 95 66 63 74 49 55 74 90 100 99 59 73
6 20 21 26 33 38 42 44 43 48 58 63 57 76 67 53 52 41 40 41 38 34 44 92 100 89 52 62 84 94 93 70 59 75 90 91 100 97
21 20 28 32 39 41 45 50 47 54 74 84 63 46 33 35 29 26 26 27 34 89 100 100 98 63 65 92 100 98 100 97 68 81 93 89 96 100
18 28 32 38 41 44 49 51 53 55 77 91 66 37 53 43 22 20 27 81 100 100 100 82 72 93 99 94 95 99 100 100 98 100 100 100 100 98

GFSNE_500_rhum_015.txt.gz
RH
77 75 77 66 52 47 43 37 39 45 57 52 50 57 52 46 38 29 20 14 12 11 10 10 9 8 8 7 6 4 4 3 3 3 3 3 3 3
85 86 68 52 56 47 54 73 68 56 42 49 53 46 38 27 19 16 14 12 11 10 9 9 8 6 4 4 3 3 3 3 3 3 4 4 3 3
84 74 62 60 54 80 82 67 51 56 61 50 40 29 20 17 15 13 11 10 10 10 8 6 4 3 3 3 4 4 5 6 11 18 29 34 33 30
76 79 58 71 90 88 62 56 75 60 46 33 23 20 17 13 13 12 12 11 10 6 4 3 4 6 6 8 14 24 40 42 44 44 52 50 51 53
79 63 94 97 89 57 71 74 54 42 28 23 17 13 12 10 11 11 10 6 4 3 6 11 14 22 32 33 35 40 44 49 52 50 55 61 60 61
74 98 100 84 59 80 68 52 38 29 24 18 15 11 8 9 11 8 4 3 6 22 28 29 32 32 29 36 42 44 46 57 61 60 60 63 65 66
100 100 73 71 81 61 49 34 30 27 21 14 11 10 9 6 4 3 5 16 32 32 23 24 28 26 23 25 38 41 46 56 59 57 63 66 67 66
99 68 84 80 57 47 35 34 30 22 13 10 9 6 5 4 4 12 19 16 14 26 20 28 30 30 31 28 26 39 44 48 48 48 58 64 64 60
77 88 71 56 45 38 36 29 18 12 9 7 7 7 4 9 13 11 11 12 17 18 16 16 23 23 26 26 26 26 31 30 25 34 45 61 65 54
86 62 55 43 39 38 29 16 11 8 8 7 4 5 12 12 12 15 19 22 26 27 25 21 21 20 20 21 22 21 20 19 17 15 27 52 71 52
59 54 44 38 39 29 16 11 10 9 7 4 8 13 13 17 22 25 33 38 38 38 40 28 39 40 37 38 25 19 18 17 15 16 18 40 73 51
54 44 39 35 29 19 15 14 14 8 4 11 13 16 25 29 34 36 40 46 48 42 43 34 51 49 37 71 56 28 17 16 15 17 22 44 74 52
46 43 36 28 20 18 18 14 9 4 12 13 18 26 30 29 36 46 56 63 72 70 66 45 56 58 48 49 66 53 31 18 15 17 23 67 74 45
43 38 29 22 22 21 15 10 4 12 14 15 25 30 30 37 50 66 78 83 95 80 75 70 42 47 59 55 58 57 39 26 19 18 27 77 58 50
43 40 30 28 27 21 12 4 11 15 16 22 30 33 35 47 68 81 94 98 95 82 79 69 55 57 55 45 48 63 45 38 20 24 76 68 58 64
46 36 33 32 24 14 4 9 15 16 23 30 34 37 43 56 88 95 95 94 64 80 100 69 58 45 43 38 47 58 56 53 52 77 71 66 69 78
40 40 34 22 16 6 8 16 16 27 32 36 43 53 52 62 92 81 68 52 62 69 69 54 50 46 35 58 91 95 99 96 86 74 60 79 100 94
37 27 21 13 6 8 18 19 27 35 38 44 58 57 47 39 29 30 31 38 48 54 42 45 44 45 54 84 78 98 89 81 92 99 90 74 98 100
17 12 7 5 9 20 24 32 41 40 45 51 65 46 42 39 24 24 29 34 38 37 39 71 99 100 100 83 51 60 89 100 100 100 80 79 78 99
5 4 5 11 23 28 35 42 45 46 47 54 70 40 69 29 16 20 22 28 52 94 100 91 78 61 55 61 78 92 82 88 93 88 95 100 94 96
4 6 15 26 33 39 43 45 45 47 47 56 71 42 83 47 32 48 81 92 90 85 88 76 69 72 91 100 100 98 92 71 56 62 87 100 95 96
8 20 29 37 42 45 48 48 43 45 48 58 73 42 89 92 97 97 94 95 86 80 84 95 100 98 96 96 100 100 100 100 85 81 95 100 98 100
20 27 37 38 48 56 60 53 45 46 52 62 72 34 79 94 96 92 94 89 74 87 100 100 99 94 91 93 96 100 93 87 92 100 100 92 79 91

GFSNE_500_rhum_018.txt.gz
RH
56 63 66 58 56 57 55 58 58 48 43 78 74 63 58 58 55 48 40 29 22 19 17 15 14 13 13 12 11 10 8 6 4 4 3 3 3 3
60 64 64 68 73 71 70 66 51 56 60 66 55 53 59 52 42 30 23 20 18 16 15 13 12 11 7 5 4 3 3 3 3 2 2 2 3 3
67 76 79 94 88 82 68 61 83 79 71 48 49 54 46 35 24 23 21 17 13 12 13 10 7 5 4 3 2 3 3 4 6 8 9 10 10 9
82 86 100 100 100 79 76 88 87 67 54 60 54 44 30 26 23 20 13 10 10 14 10 5 4 3 3 4 6 12 16 22 26 25 30 32 32 31
99 92 100 100 98 88 90 91 62 74 73 54 40 28 26 24 14 10 9 13 15 10 7 4 5 10 13 19 23 24 22 23 23 30 39 42 39 36
93 100 100 98 96 89 91 65 84 71 55 39 29 28 25 14 10 13 16 13 10 6 7 9 10 10 10 11 12 14 15 15 23 27 48 52 50 50
100 99 98 92 89 80 73 87 67 56 37 31 30 26 15 13 16 16 11 7 5 10 9 10 13 14 17 17 16 15 13 16 22 23 50 55 55 54
97 86 93 92 68 86 85 65 52 38 34 32 26 18 17 16 13 8 5 7 11 17 18 20 22 25 30 29 26 22 18 15 15 23 30 49 49 49
100 97 72 81 91 80 70 53 42 41 33 26 21 21 20 14 8 6 11 16 16 17 16 14 24 33 35 32 30 27 25 20 15 19 25 32 36 31
68 77 89 92 80 70 53 45 43 32 28 26 28 24 16 9 7 13 19 18 19 23 32 23 40 46 45 42 43 51 52 43 21 15 22 25 24 18
84 93 87 75 65 56 51 44 41 37 34 32 27 19 9 8 13 15 19 20 25 36 66 46 60 62 63 58 85 94 78 53 30 18 17 23 21 17
87 75 68 66 59 52 50 49 46 40 38 29 16 7 11 14 20 22 26 33 39 44 76 51 67 65 54 64 79 100 100 65 37 28 18 20 25 18
69 74 68 61 57 54 52 48 45 43 30 15 5 14 18 28 29 37 43 46 46 58 74 52 49 48 51 54 53 69 83 61 46 40 21 18 22 20
69 65 59 55 54 53 53 50 34 19 10 5 15 18 29 34 45 48 46 40 34 27 43 45 52 59 49 45 43 60 60 52 53 41 26 19 20 22
49 48 46 46 49 47 31 22 13 6 6 17 21 32 35 49 55 38 40 22 23 30 37 40 40 38 40 40 39 49 46 58 48 30 22 22 35 56
35 34 35 39 36 30 18 9 5 8 20 22 37 40 48 61 40 45 19 19 25 34 39 34 38 38 45 66 80 66 59 58 46 45 78 96 89 69
30 35 38 33 20 11 6 4 10 22 24 33 38 42 61 46 56 22 15 18 22 26 35 43 56 76 87 78 89 90 94 94 90 94 73 70 72 63
16 16 12 9 6 5 5 16 24 30 37 40 42 52 60 46 63 17 16 26 50 76 87 98 100 100 95 74 61 80 92 85 82 78 71 77 100 60
4 4 5 5 5 8 24 31 37 39 42 45 48 63 45 72 75 71 79 87 92 89 79 77 81 85 98 100 90 68 94 100 100 98 77 64 68 80
4 5 5 8 20 30 39 43 40 43 46 48 52 63 37 75 81 86 86 84 87 89 92 94 95 93 93 94 100 100 80 67 76 97 98 83 73 83
5 8 18 27 34 43 44 50 54 50 50 50 57 54 32 66 82 86 88 73 70 79 90 94 97 96 99 100 100 100 100 70 59 56 75 100 100 89
18 23 30 36 41 51 65 67 58 51 48 49 58 45 34 34 71 85 86 86 74 62 74 96 100 98 94 91 95 92 95 98 73 69 76 82 89 100
25 27 32 44 59 69 76 74 61 54 55 54 58 46 36 37 36 64 81 86 80 79 75 100 100 100 97 93 80 82 88 87 95 100 85 63 65 92